Change the Weather History Date:

Friday, May 30, 2014

  Actual Average (KCLT) Record (KCLT)
Temperature  
Mean Temperature 74 °F 71 °F  
Max Temperature 82 °F 82 °F 95 °F (1918)
Min Temperature 66 °F 60 °F 47 °F (1894)
Degree Days  
Heating Degree Days 0 0  
Month to date heating degree days 53  
Since 1 July heating degree days 3385  
Cooling Degree Days 8 7  
Month to date cooling degree days 118  
Year to date cooling degree days 155  
Growing Degree Days 24 (Base 50)    
Moisture  
Dew Point 66 °F    
Average Humidity 83    
Maximum Humidity 97    
Minimum Humidity 62    
Precipitation  
Precipitation 0.01 in 0.11 in 2.52 in (1975)
Month to date precipitation 3.06  
Year to date precipitation 16.84  
Snow  
Snow 0.00 in 0.00 in 0.00 in ()
Month to date snowfall 0.0  
Since 1 July snowfall 4.3  
Snow Depth -    
Sea Level Pressure  
Sea Level Pressure 30.07 in    
Wind  
Wind Speed 3 mph (East)    
Max Wind Speed 7 mph    
Max Gust Speed -    
Visibility 8 miles    
Events      
T = Trace of Precipitation, MM = Missing Value Source: NWS Daily Summary

Daily Weather History Graph

Daily Weather History Graph

Search for Another Location

Airport or City:

Trip Planner

Search our weather history database for the weather conditions in past years. The results will help you decide how hot, cold, wet, or windy it might be!

Date:

Astronomy

May. 30, 2014 Rise Set
Actual Time 6:10 AM EDT 8:30 PM EDT
Civil Twilight 5:41 AM EDT 8:59 PM EDT
Nautical Twilight 5:05 AM EDT 9:34 PM EDT
Astronomical Twilight 4:26 AM EDT 10:14 PM EDT
Moon 7:51 AM EDT (5/30) 10:08 PM EDT (5/30)
Length of Visible Light 15h 17m
Length of Day
14h 19m
Waxing Crescent, 4% of the Moon is Illuminated
May 30
Waxing Crescent
Jun 5
First Quarter
Jun 13
Full
Jun 19
Last Quarter
Jun 27
New

Hourly Weather History & Observations

Time (EDT) Temp. Heat Index Dew Point Humidity Pressure Visibility Wind Dir Wind Speed Gust Speed Precip Events Conditions
12:53 AM 66.9 °F - 64.9 °F 93% 30.09 in 10.0 mi Variable 4.6 mph - 0.01 in   Mostly Cloudy
1:43 AM 68.0 °F - 64.9 °F 90% 30.09 in 10.0 mi WSW 4.6 mph - N/A   Mostly Cloudy
1:53 AM 68.0 °F - 64.9 °F 90% 30.09 in 10.0 mi West 4.6 mph - N/A   Mostly Cloudy
2:07 AM 68.0 °F - 64.9 °F 90% 30.09 in 10.0 mi West 3.5 mph - N/A   Scattered Clouds
2:53 AM 68.0 °F - 66.0 °F 93% 30.07 in 10.0 mi WNW 3.5 mph - N/A   Scattered Clouds
3:53 AM 68.0 °F - 64.9 °F 90% 30.04 in 10.0 mi West 4.6 mph - N/A   Scattered Clouds
4:53 AM 68.0 °F - 64.9 °F 90% 30.04 in 10.0 mi North 4.6 mph - N/A   Clear
5:50 AM 66.2 °F - 64.4 °F 94% 30.04 in 1.5 mi Calm Calm - N/A   Clear
5:53 AM 66.0 °F - 64.0 °F 93% 30.04 in 1.2 mi Calm Calm - N/A   Clear
6:12 AM 66.0 °F - 64.0 °F 93% 30.05 in 2.5 mi SE 3.5 mph - N/A   Partly Cloudy
6:24 AM 66.0 °F - 64.0 °F 93% 30.05 in 1.8 mi Calm Calm - N/A   Mostly Cloudy
6:36 AM 66.0 °F - 64.9 °F 96% 30.05 in 2.0 mi Calm Calm - N/A   Mostly Cloudy
6:53 AM 66.9 °F - 64.9 °F 93% 30.06 in 2.5 mi ENE 3.5 mph - N/A   Overcast
7:07 AM 66.9 °F - 66.0 °F 97% 30.06 in 3.0 mi ENE 3.5 mph - N/A   Overcast
7:53 AM 68.0 °F - 66.0 °F 93% 30.06 in 5.0 mi ENE 6.9 mph - N/A   Overcast
8:05 AM 69.1 °F - 66.0 °F 90% 30.06 in 6.0 mi NE 4.6 mph - N/A   Overcast
8:53 AM 70.0 °F - 66.0 °F 87% 30.08 in 7.0 mi ENE 3.5 mph - N/A   Overcast
9:27 AM 71.1 °F - 66.0 °F 84% 30.08 in 9.0 mi Variable 3.5 mph - N/A   Overcast
9:53 AM 72.0 °F - 66.0 °F 81% 30.09 in 10.0 mi Calm Calm - N/A   Overcast
10:30 AM 73.0 °F - 66.0 °F 79% 30.10 in 10.0 mi Variable 3.5 mph - N/A   Overcast
10:53 AM 73.9 °F - 66.0 °F 76% 30.11 in 10.0 mi Variable 3.5 mph - N/A   Overcast
11:53 AM 73.9 °F - 66.9 °F 79% 30.12 in 10.0 mi Variable 3.5 mph - N/A   Overcast
12:42 PM 75.9 °F - 66.0 °F 71% 30.11 in 10.0 mi SE 5.8 mph - N/A   Overcast
12:53 PM 77.0 °F - 66.0 °F 69% 30.11 in 10.0 mi Variable 4.6 mph - N/A   Overcast
1:37 PM 77.0 °F - 66.9 °F 71% 30.10 in 10.0 mi Variable 3.5 mph - N/A   Overcast
1:49 PM 78.8 °F - 66.2 °F 65% 30.10 in 10.0 mi SSW 4.6 mph - N/A   Mostly Cloudy
1:53 PM 78.1 °F - 66.9 °F 68% 30.10 in 10.0 mi Variable 3.5 mph - N/A   Mostly Cloudy
2:53 PM 79.0 °F - 66.9 °F 66% 30.07 in 10.0 mi Variable 4.6 mph - N/A   Mostly Cloudy
3:53 PM 80.1 °F 82.1 °F 66.0 °F 62% 30.05 in 10.0 mi ESE 4.6 mph - N/A   Partly Cloudy
4:53 PM 81.0 °F 83.3 °F 66.9 °F 62% 30.05 in 10.0 mi South 5.8 mph - N/A   Partly Cloudy
5:53 PM 79.0 °F - 66.9 °F 66% 30.05 in 10.0 mi Calm Calm - N/A   Clear
6:53 PM 75.9 °F - 69.1 °F 79% 30.04 in 10.0 mi South 3.5 mph - N/A   Scattered Clouds
7:53 PM 75.0 °F - 69.1 °F 82% 30.05 in 10.0 mi Calm Calm - N/A   Clear
8:53 PM 73.0 °F - 68.0 °F 84% 30.06 in 10.0 mi Calm Calm - N/A   Partly Cloudy
9:53 PM 73.0 °F - 68.0 °F 84% 30.07 in 10.0 mi Calm Calm - N/A   Partly Cloudy
10:53 PM 72.0 °F - 68.0 °F 87% 30.09 in 10.0 mi ENE 3.5 mph - N/A   Clear
11:53 PM 73.0 °F - 69.1 °F 87% 30.11 in 9.0 mi ENE 5.8 mph - N/A   Mostly Cloudy